Location: Milton Keynes
(52.0316°N, 0.7531°W)
Time: 05:32:47
(UTC+00:00)

Envisat - Pass Details

Date: 02 February 2019
Orbit: 764 x 766 km, 98.2° (Epoch: 16 February)

Event Time Altitude Azimuth Distance (km) Brightness Sun altitude
Rises 20:00:58 0° 210° (SSW) 3,223 6.5 -29.1°
Reaches altitude 10° 20:03:59 10° 229° (SW) 2,302 5.9 -29.5°
Maximum altitude 20:07:26 18° 272° (W) 1,805 5.6 -30.0°
Drops below altitude 10° 20:10:55 10° 315° (NW) 2,314 6.1 -30.5°
Sets 20:13:58 0° 334° (NNW) 3,246 6.7 -31.0°
